Red Bluff, CA

9:43 PM PST on December 05, 2019 (GMT -0800)
Red Bluff Municipal

Weather History for KRBL - October, 2019

Change the Weather History Date:

Tuesday, October 15, 2019

  Actual Average Record
Temperature  
Mean Temperature 62 °F -  
Max Temperature 80 °F 79 °F 101 °F (1991)
Min Temperature 46 °F 50 °F 42 °F (1968)
Degree Days  
Heating Degree Days 2    
Growing Degree Days 12 (Base 50)    
Moisture  
Dew Point 31 °F    
Average Humidity 34    
Maximum Humidity 54    
Minimum Humidity 7    
Precipitation  
Precipitation 0.00 in - - ()
Sea Level Pressure  
Sea Level Pressure 30.03 in    
Wind  
Wind Speed 6 mph (NW)    
Max Wind Speed 9 mph    
Max Gust Speed -    
Visibility 10 miles    
Events      
Averages and records for this station are not official NWS values.
T = Trace of Precipitation, MM = Missing Value Source: NWS Daily Summary

Daily Weather History Graph

Daily Weather History Graph

Search for Another Location

Airport or City:

Astronomy

Oct. 15, 2019 Rise Set
Actual Time 7:19 AM PDT 6:29 PM PDT
Civil Twilight 6:52 AM PDT 6:56 PM PDT
Nautical Twilight 6:20 AM PDT 7:28 PM PDT
Astronomical Twilight 5:49 AM PDT 7:59 PM PDT
Moon 7:52 PM PDT (10/15) 8:55 AM PDT (10/15)
Length of Visible Light 12h 04m
Length of Day
11h 09m
Waning Gibbous, 97% of the Moon is Illuminated
Oct 15
Waning Gibbous
Oct 21
Last Quarter
Oct 27
New
Nov 4
First Quarter
Nov 12
Full

Hourly Weather History & Observations

Time (PDT) Temp. Dew Point Humidity Pressure Visibility Wind Dir Wind Speed Gust Speed Precip Events Conditions
12:54 AM 50.0 °F 28.0 °F 43% 30.01 in 10.0 mi WNW 5.8 mph - N/A   Clear
1:54 AM 50.0 °F 28.9 °F 44% 30.02 in 10.0 mi WNW 5.8 mph - N/A   Clear
2:54 AM 50.0 °F 28.9 °F 44% 30.02 in 10.0 mi WNW 6.9 mph - N/A   Clear
3:54 AM 48.9 °F 28.9 °F 46% 30.03 in 10.0 mi NW 5.8 mph - N/A   Clear
4:54 AM 48.9 °F 28.9 °F 46% 30.03 in 10.0 mi NW 6.9 mph - N/A   Clear
5:54 AM 48.0 °F 30.0 °F 50% 30.05 in 10.0 mi NW 6.9 mph - N/A   Clear
6:54 AM 46.9 °F 30.0 °F 52% 30.07 in 10.0 mi NW 6.9 mph - N/A   Clear
7:54 AM 46.9 °F 30.9 °F 54% 30.08 in 10.0 mi NW 3.5 mph - N/A   Clear
8:54 AM 55.0 °F 33.1 °F 43% 30.09 in 10.0 mi North 5.8 mph - N/A   Clear
9:54 AM 63.0 °F 33.1 °F 33% 30.10 in 10.0 mi North 5.8 mph - N/A   Clear
10:54 AM 69.1 °F 32.0 °F 25% 30.10 in 10.0 mi Calm Calm - N/A   Clear
11:54 AM 73.9 °F 30.9 °F 21% 30.10 in 10.0 mi North 4.6 mph - N/A   Clear
12:54 PM 75.0 °F 30.9 °F 20% 30.08 in 10.0 mi ENE 4.6 mph - N/A   Clear
1:54 PM 78.1 °F 32.0 °F 19% 30.05 in 10.0 mi SE 8.1 mph - N/A   Clear
2:54 PM 79.0 °F 32.0 °F 18% 30.02 in 10.0 mi South 9.2 mph - N/A   Clear
3:54 PM 80.1 °F 28.9 °F 15% 30.01 in 10.0 mi South 6.9 mph - N/A   Clear
4:54 PM 79.0 °F 27.0 °F 15% 30.00 in 10.0 mi SSE 8.1 mph - N/A   Clear
5:54 PM 77.0 °F 30.0 °F 18% 29.99 in 10.0 mi SSE 5.8 mph - N/A   Clear
6:54 PM 72.0 °F 30.9 °F 22% 30.00 in 10.0 mi Calm Calm - N/A   Clear
7:54 PM 66.0 °F 34.0 °F 30% 30.00 in 10.0 mi Calm Calm - N/A   Clear
8:54 PM 57.9 °F 34.0 °F 41% 30.01 in 10.0 mi Calm Calm - N/A   Clear
9:54 PM 55.0 °F 32.0 °F 42% 30.01 in 10.0 mi West 6.9 mph - N/A   Clear
10:54 PM 52.0 °F 32.0 °F 47% 30.01 in 10.0 mi NW 4.6 mph - N/A   Clear
11:54 PM 52.0 °F 32.0 °F 47% 30.01 in 10.0 mi WNW 5.8 mph - N/A   Clear